Location: Starlight Observatory
(38.4029°N, 85.8936°W)
Time: 00:37:14
(UTC-05:00)

Amateur Radio Satellites - All Passes

Search period start: 28 November 2014 00:07
Search period end: 29 November 2014 00:07
Location: Starlight Observatory, 38.4029°N, 85.8936°W

Satellite Date Start Highest point End Downlink Frequencies (MHz)
Time Altitude Azimuth
CUSAT 1 28 Nov 00:07:46 00:12:46 72° 81° (E) 00:19:28 437.405
UNISAT 6 28 Nov 00:17:28 00:21:17 28° 290° (WNW) 00:25:10 437.425
JUGNU 28 Nov 00:28:34 00:30:38 12° 177° (S) 00:32:42 437.505
AUBIESAT-1 28 Nov 00:37:11 00:41:04 43° 67° (ENE) 00:45:19 437.475
RS-15 28 Nov 00:39:37 00:50:31 53° 50° (NE) 01:01:51 29.354- 29.394
POLYITAN 1 28 Nov 00:41:05 00:44:16 21° 292° (WNW) 00:47:27 437.675
QB50P2 28 Nov 00:42:18 00:45:26 21° 292° (WNW) 00:48:34 145.880/145.840
DANDE 28 Nov 00:42:50 00:47:40 66° 262° (W) 00:54:12 436.750
M-CUBED/EXP-1 PRIME 28 Nov 00:43:46 00:47:46 56° 69° (ENE) 00:52:10 437.505
DUCHIFAT 1 28 Nov 00:47:07 00:50:03 19° 293° (WNW) 00:52:58 145.980
ANTELSAT 28 Nov 00:47:38 00:50:05 15° 295° (WNW) 00:52:33 437.575/2403.000
MaSat-1 28 Nov 00:47:54 00:50:13 76° 66° (ENE) 00:52:39 437.345
TISAT 1 28 Nov 00:50:12 00:53:55 29° 263° (W) 00:57:39 437.305
ITUPSAT 1 28 Nov 00:57:24 01:01:57 43° 71° (ENE) 01:06:31 437.325
ISS 28 Nov 01:06:07 01:07:52 14° 341° (NNW) 01:09:36 145.825
SPROUT 28 Nov 01:07:01 01:10:25 22° 265° (W) 01:13:49 437.525
SWISSCUBE 28 Nov 01:07:18 01:12:01 61° 74° (ENE) 01:16:46 437.505
NANOSAT C BR1 28 Nov 01:08:17 01:09:38 11° 296° (WNW) 01:10:59 145.865
YUBILEINY 28 Nov 01:24:27 01:30:13 20° 79° (E) 01:35:56 435.215
KKS-1 28 Nov 01:31:49 01:35:01 20° 67° (ENE) 01:38:14 437.445
BEESAT 28 Nov 01:37:52 01:42:38 70° 258° (WSW) 01:47:26 436.000
CUSAT 1 28 Nov 01:53:02 01:55:47 14° 269° (W) 01:58:51 437.405
AUBIESAT-1 28 Nov 02:13:53 02:16:21 15° 265° (W) 02:18:57 437.475
Oscar 19 28 Nov 02:14:34 02:19:45 73° 102° (ESE) 02:24:55 437.125/150
JUGNU 28 Nov 02:17:38 02:18:45 11° 188° (S) 02:19:52 437.505
Gurwin Techsat 1B 28 Nov 02:19:08 02:22:31 17° 92° (E) 02:25:52 435.225
M-CUBED/EXP-1 PRIME 28 Nov 02:21:51 02:23:18 12° 266° (W) 02:24:46 437.505
STARS 28 Nov 02:21:54 02:26:06 46° 73° (ENE) 02:30:19 437.465
SRMSAT 28 Nov 02:31:17 02:33:37 12° 181° (S) 02:35:57 437.500
ITUPSAT 1 28 Nov 02:36:42 02:40:00 18° 267° (W) 02:43:20 437.325
SWISSCUBE 28 Nov 02:48:07 02:50:15 13° 269° (W) 02:52:24 437.505
RS-15 28 Nov 02:52:16 03:02:45 46° 251° (WSW) 03:13:41 29.354- 29.394
KKS-1 28 Nov 03:07:20 03:11:25 35° 262° (W) 03:15:31 437.445
PCSat 28 Nov 03:12:03 03:13:20 11° 40° (NE) 03:14:37 145.827
ITAMSAT 1 28 Nov 03:12:30 03:17:42 84° 284° (WNW) 03:22:52 435.822/435.867
YUBILEINY 28 Nov 03:17:06 03:25:55 79° 278° (W) 03:34:44 435.215
SO-50 28 Nov 03:28:40 03:33:05 61° 118° (ESE) 03:37:39 436.795
Oscar 19 28 Nov 03:55:59 03:58:26 14° 298° (WNW) 04:00:53 437.125/150
Gurwin Techsat 1B 28 Nov 03:57:36 04:02:47 55° 288° (WNW) 04:07:56 435.225
STARS 28 Nov 04:00:24 04:02:48 14° 267° (W) 04:05:13 437.465
AO-7 28 Nov 04:15:23 04:22:59 37° 98° (E) 04:30:31 29.400- 29.500
HORYU 2 28 Nov 04:17:56 04:22:25 69° 285° (WNW) 04:26:53 437.375
ISS 28 Nov 04:21:24 04:23:31 16° 22° (NNE) 04:25:37 145.825
MOZHAYETS 4 28 Nov 04:27:24 04:31:40 40° 72° (ENE) 04:36:00
BEESAT 3 28 Nov 04:35:55 04:39:47 34° 53° (NE) 04:43:35 437.485
JAS-2 28 Nov 04:37:31 04:41:21 16° 86° (E) 04:44:57 435.910
PCSat 28 Nov 04:52:27 04:57:51 64° 60° (ENE) 05:03:12 145.827
PRISM 28 Nov 04:52:51 04:54:52 13° 64° (ENE) 04:56:53 437.425
BEESAT 2 28 Nov 04:53:07 04:57:12 46° 55° (NE) 05:01:13 435.950
SO-50 28 Nov 05:11:03 05:14:03 17° 316° (NW) 05:17:07 436.795
YUBILEINY 28 Nov 05:19:39 05:24:12 15° 298° (WNW) 05:28:46 435.215
AIST 2 28 Nov 05:37:42 05:42:00 68° 58° (ENE) 05:46:13 435.215
ISS 28 Nov 05:57:15 06:00:33 90° 43° (NE) 06:03:50 145.825
STRAND 1 28 Nov 06:03:33 06:08:05 32° 69° (ENE) 06:12:37 437.568
MOZHAYETS 4 28 Nov 06:05:55 06:09:03 18° 267° (W) 06:12:12
AO-7 28 Nov 06:07:56 06:15:49 48° 296° (WNW) 06:23:42 29.400- 29.500
Cubesat XI-IV 28 Nov 06:10:03 06:14:15 23° 95° (E) 06:18:25 437.490
O/OREOS (USA 219) 28 Nov 06:12:49 06:17:18 76° 291° (WNW) 06:21:47 437.305
BEESAT 3 28 Nov 06:14:40 06:17:46 20° 249° (WSW) 06:20:50 437.485
CUBESAT XI-V 28 Nov 06:15:13 06:19:37 40° 72° (ENE) 06:24:02 437.345
JAS-2 28 Nov 06:20:21 06:27:18 75° 286° (WNW) 06:33:22 435.910
PRISM 28 Nov 06:25:52 06:29:57 51° 260° (W) 06:34:06 437.425
BEESAT 2 28 Nov 06:32:42 06:35:04 15° 251° (WSW) 06:37:25 435.950
PCSat 28 Nov 06:37:29 06:40:40 16° 256° (WSW) 06:43:50 145.827
CUTE-I 28 Nov 06:50:01 06:55:15 56° 101° (E) 07:00:26 437.470
AIST 1 28 Nov 06:54:49 06:59:06 53° 80° (E) 07:03:19
GONETS M04 28 Nov 07:14:19 07:20:37 23° 80° (E) 07:26:55
AIST 2 28 Nov 07:19:25 07:20:00 10° 253° (WSW) 07:20:35 435.215
STRAND 1 28 Nov 07:42:52 07:47:14 28° 264° (W) 07:51:37 437.568
Cubesat XI-IV 28 Nov 07:49:30 07:54:27 40° 290° (WNW) 07:59:22 437.490
CUBESAT XI-V 28 Nov 07:53:52 07:57:11 19° 267° (W) 08:00:31 437.345
JAS-2 28 Nov 08:08:15 08:10:55 13° 307° (NW) 08:13:29 435.910
CUTE-I 28 Nov 08:31:19 08:34:50 18° 297° (WNW) 08:38:20 437.470
AIST 1 28 Nov 08:34:52 08:36:12 11° 276° (W) 08:37:33
CANX-2 28 Nov 08:41:35 08:44:23 17° 93° (E) 08:47:10 2200.000
GONETS M04 28 Nov 09:07:42 09:16:28 72° 279° (W) 09:25:21
CUTE 1.7 + AOD 2 28 Nov 09:14:56 09:18:55 37° 98° (E) 09:22:54 437.475
BRITE-PL 28 Nov 09:20:18 09:24:13 39° 99° (E) 09:28:13 437.365/2234.400
DOVE 4 28 Nov 09:24:00 09:27:24 23° 96° (E) 09:30:53 437.250
TIGRISAT 28 Nov 09:25:55 09:27:44 13° 64° (ENE) 09:29:33 435.000
UNISAT 6 28 Nov 09:39:44 09:42:40 18° 67° (ENE) 09:45:37 437.425
CINEMA 3 28 Nov 09:41:34 09:44:56 22° 95° (E) 09:48:22 145.822/145.860
HO-68 28 Nov 09:42:08 09:49:19 73° 104° (ESE) 09:56:27 435.675
SEEDS 28 Nov 09:44:33 09:48:50 72° 101° (ESE) 09:53:06 437.485
DELFI C3 28 Nov 09:49:29 09:52:50 23° 95° (E) 09:56:10 145.870
UKube-1 28 Nov 09:51:19 09:54:53 25° 96° (E) 09:58:26 .
AAUSAT CUBESAT 2 28 Nov 09:56:18 10:00:33 73° 102° (ESE) 10:04:46 437.432
POLYITAN 1 28 Nov 09:57:33 10:00:40 20° 68° (ENE) 10:03:47 437.675
QB50P2 28 Nov 09:58:29 10:01:39 21° 68° (ENE) 10:04:49 145.880/145.840
FUNcube-1 28 Nov 09:59:03 10:01:36 15° 93° (E) 10:04:11 145.935
Oscar 11 28 Nov 10:00:17 10:04:22 38° 98° (E) 10:08:25 145.826/435.025
DUCHIFAT 1 28 Nov 10:02:40 10:05:58 22° 68° (ENE) 10:09:16 145.980
AISAT 28 Nov 10:04:31 10:05:10 10° 91° (E) 10:05:49 437.250
ANTELSAT 28 Nov 10:07:39 10:11:34 37° 72° (ENE) 10:15:31 437.575/2403.000
COMPASS 1 28 Nov 10:13:26 10:17:39 61° 285° (WNW) 10:21:50 437.405
CANX-2 28 Nov 10:16:28 10:20:27 38° 288° (WNW) 10:24:25 2200.000
GOMX 1 28 Nov 10:17:00 10:21:07 61° 285° (WNW) 10:25:23 467.674
NANOSAT C BR1 28 Nov 10:21:49 10:25:43 37° 72° (ENE) 10:29:38 145.865
HUMSAT D 28 Nov 10:24:47 10:27:40 18° 94° (E) 10:30:33 437.325/437.525
DX 1 28 Nov 10:28:52 10:33:13 70° 102° (ESE) 10:37:31 434.975-435.025
BUGSAT 1 28 Nov 10:29:18 10:33:12 37° 72° (ENE) 10:37:06 437.445
UWE-3 28 Nov 10:30:19 10:34:23 42° 99° (E) 10:38:33 435.000/436.395/437.385
QB50P1 28 Nov 10:31:52 10:35:57 48° 73° (ENE) 10:40:03 145.935-145.965
CUBEBUG 2 28 Nov 10:35:18 10:39:31 57° 100° (E) 10:43:51 437.445
CUTE 1.7 + AOD 2 28 Nov 10:51:39 10:54:34 18° 293° (WNW) 10:57:28 437.475
POPSAT HIP 1 28 Nov 10:56:51 11:01:07 85° 257° (WSW) 11:05:23 437.405
ZACube-1 28 Nov 10:59:33 11:03:49 80° 102° (ESE) 11:08:11 437.345
TIGRISAT 28 Nov 10:59:52 11:04:01 53° 260° (W) 11:08:12 435.000
BRITE-PL 28 Nov 11:00:04 11:02:27 15° 293° (WNW) 11:04:52 437.365/2234.400
DOVE 4 28 Nov 11:01:37 11:05:08 26° 290° (WNW) 11:08:45 437.250
VELOX 1 28 Nov 11:09:55 11:14:18 60° 101° (E) 11:18:38 145.980
GONETS M04 28 Nov 11:11:19 11:15:02 13° 300° (WNW) 11:18:46
UNISAT 6 28 Nov 11:15:20 11:19:13 34° 262° (W) 11:23:08 437.425
ESTCUBE 1 28 Nov 11:18:06 11:21:59 27° 96° (E) 11:25:49 437.505/2401.250
CINEMA 3 28 Nov 11:18:28 11:22:08 28° 289° (WNW) 11:25:53 145.822/145.860
DELFI C3 28 Nov 11:24:39 11:28:03 25° 290° (WNW) 11:31:28 145.870
UKube-1 28 Nov 11:27:21 11:30:59 26° 291° (WNW) 11:34:35 .
50 SAT 28 Nov 11:30:41 11:34:47 90° 287° (WNW) 11:38:53 437.505
HO-68 28 Nov 11:31:12 11:36:18 22° 302° (WNW) 11:41:24 435.675
POLYITAN 1 28 Nov 11:32:37 11:36:25 31° 263° (W) 11:40:13 437.675
QB50P2 28 Nov 11:33:35 11:37:22 31° 263° (W) 11:41:10 145.880/145.840
FUNcube-1 28 Nov 11:34:07 11:38:07 41° 287° (WNW) 11:42:11 145.935
Oscar 11 28 Nov 11:37:18 11:40:14 18° 293° (WNW) 11:43:09 145.826/435.025
AISAT 28 Nov 11:37:50 11:42:13 64° 285° (WNW) 11:46:34 437.250
DUCHIFAT 1 28 Nov 11:38:01 11:41:41 28° 263° (W) 11:45:22 145.980
CUBEBUG 1 28 Nov 11:41:05 11:45:18 46° 99° (E) 11:49:27 437.445
ANTELSAT 28 Nov 11:45:49 11:48:31 16° 267° (W) 11:51:14 437.575/2403.000
Oscar 19 28 Nov 11:55:32 11:56:32 11° 60° (ENE) 11:57:32 437.125/150
NANOSAT C BR1 28 Nov 11:58:57 12:01:43 17° 266° (W) 12:04:29 145.865
HUMSAT D 28 Nov 11:59:46 12:03:33 34° 288° (WNW) 12:07:22 437.325/437.525
SO-50 28 Nov 12:01:35 12:06:09 39° 53° (NE) 12:10:44 436.795
BUGSAT 1 28 Nov 12:06:03 12:08:49 17° 266° (W) 12:11:34 437.445
UWE-3 28 Nov 12:08:01 12:10:37 16° 293° (WNW) 12:13:14 435.000/436.395/437.385
DX 1 28 Nov 12:08:04 12:08:51 10° 298° (WNW) 12:09:37 434.975-435.025
QB50P1 28 Nov 12:10:11 12:12:06 13° 268° (W) 12:14:02 145.935-145.965
CUBEBUG 2 28 Nov 12:14:04 12:15:47 12° 295° (WNW) 12:17:30 437.445
TISAT 1 28 Nov 12:36:23 12:40:28 47° 100° (E) 12:44:30 437.305
VELOX 1 28 Nov 12:48:33 12:50:21 12° 297° (WNW) 12:52:08 145.980
ITAMSAT 1 28 Nov 12:52:19 12:55:17 16° 62° (ENE) 12:58:15 435.822/435.867
SPROUT 28 Nov 12:54:22 12:58:39 70° 102° (ESE) 13:02:54 437.525
ESTCUBE 1 28 Nov 12:55:00 12:58:45 26° 291° (WNW) 13:02:28 437.505/2401.250
VERMONT LUNAR 28 Nov 12:57:29 13:00:10 20° 147° (SSE) 13:02:51 437.305
PHONESAT 2.4 28 Nov 12:58:00 13:00:04 14° 144° (SE) 13:02:08 2401.200-2431.200
ITUPSAT 1 28 Nov 13:01:43 13:03:44 13° 91° (E) 13:05:45 437.325
SWISSCUBE 28 Nov 13:10:33 13:13:47 18° 93° (E) 13:16:59 437.505
CUBEBUG 1 28 Nov 13:18:49 13:21:16 15° 295° (WNW) 13:23:42 437.445
CUSAT 1 28 Nov 13:21:25 13:24:04 67° 280° (W) 13:26:40 437.405
YUBILEINY 28 Nov 13:29:26 13:37:48 48° 76° (ENE) 13:46:05 435.215
Oscar 19 28 Nov 13:29:58 13:35:04 90° 76° (ENE) 13:40:13 437.125/150
Gurwin Techsat 1B 28 Nov 13:38:36 13:42:48 24° 66° (ENE) 13:47:00 435.225
BEESAT 28 Nov 13:40:09 13:44:29 33° 97° (E) 13:48:48 436.000
SO-50 28 Nov 13:42:33 13:46:31 25° 249° (WSW) 13:50:28 436.795
AUBIESAT-1 28 Nov 13:55:56 14:00:43 50° 104° (ESE) 14:05:17 437.475
DANDE 28 Nov 14:00:01 14:02:04 19° 284° (WNW) 14:04:03 436.750
M-CUBED/EXP-1 PRIME 28 Nov 14:03:01 14:07:56 66° 106° (ESE) 14:12:39 437.505
TISAT 1 28 Nov 14:13:45 14:15:52 14° 295° (WNW) 14:18:00 437.305
MaSat-1 28 Nov 14:14:51 14:16:49 16° 109° (ESE) 14:18:41 437.345
ITAMSAT 1 28 Nov 14:29:01 14:34:12 65° 258° (WSW) 14:39:23 435.822/435.867
VERMONT LUNAR 28 Nov 14:34:42 14:38:18 78° 162° (SSE) 14:41:55 437.305
PHONESAT 2.4 28 Nov 14:34:44 14:38:23 61° 159° (SSE) 14:42:04 2401.200-2431.200
ITUPSAT 1 28 Nov 14:37:16 14:42:01 62° 286° (WNW) 14:46:44 437.325
O/OREOS (USA 219) 28 Nov 14:46:20 14:49:01 15° 56° (ENE) 14:51:41 437.305
SWISSCUBE 28 Nov 14:47:17 14:51:50 44° 288° (WNW) 14:56:21 437.505
KKS-1 28 Nov 14:59:49 15:04:07 47° 100° (E) 15:08:23 437.445
RS-15 28 Nov 15:02:42 15:12:11 35° 106° (ESE) 15:21:33 29.354- 29.394
AO-7 28 Nov 15:12:42 15:20:24 45° 63° (ENE) 15:28:08 29.400- 29.500
HORYU 2 28 Nov 15:14:57 15:19:22 89° 256° (WSW) 15:23:50 437.375
Gurwin Techsat 1B 28 Nov 15:17:32 15:22:30 40° 262° (W) 15:27:30 435.225
BEESAT 28 Nov 15:18:20 15:22:08 24° 293° (WNW) 15:25:56 436.000
YUBILEINY 28 Nov 15:26:44 15:34:14 34° 275° (W) 15:41:43 435.215
AUBIESAT-1 28 Nov 15:31:50 15:35:15 19° 300° (WNW) 15:38:36 437.475
M-CUBED/EXP-1 PRIME 28 Nov 15:39:32 15:42:22 16° 302° (WNW) 15:45:10 437.505
MaSat-1 28 Nov 15:49:21 15:51:09 15° 300° (WNW) 15:52:53 437.345
STARS 28 Nov 15:49:43 15:54:05 69° 285° (WNW) 15:58:27 437.465
VERMONT LUNAR 28 Nov 16:13:18 16:16:53 59° 359° (N) 16:20:28 437.305
PHONESAT 2.4 28 Nov 16:13:32 16:17:13 63° 355° (N) 16:20:55 2401.200-2431.200
O/OREOS (USA 219) 28 Nov 16:24:22 16:28:42 50° 253° (WSW) 16:33:02 437.305
MOZHAYETS 4 28 Nov 16:26:51 16:27:58 11° 90° (E) 16:29:04
JAS-2 28 Nov 16:28:21 16:35:35 46° 68° (ENE) 16:42:57 435.910
KKS-1 28 Nov 16:37:47 16:40:21 15° 295° (WNW) 16:42:55 437.445
AO-7 28 Nov 17:05:34 17:13:10 40° 261° (W) 17:20:50 29.400- 29.500
RS-15 28 Nov 17:13:01 17:23:50 62° 307° (NW) 17:34:42 29.354- 29.394
Cubesat XI-IV 28 Nov 17:30:30 17:35:17 34° 69° (ENE) 17:40:05 437.490
VERMONT LUNAR 28 Nov 17:51:51 17:55:29 87° 198° (SSW) 17:59:07 437.305
PHONESAT 2.4 28 Nov 17:52:28 17:56:12 79° 13° (NNE) 17:59:55 2401.200-2431.200
MOZHAYETS 4 28 Nov 18:00:58 18:05:37 67° 285° (WNW) 18:10:13
CUTE-I 28 Nov 18:10:23 18:15:44 79° 75° (ENE) 18:21:06 437.470
PRISM 28 Nov 18:11:09 18:14:38 25° 96° (E) 18:18:06 437.425
JAS-2 28 Nov 18:13:38 18:20:34 37° 265° (W) 18:27:44 435.910
CUBESAT XI-V 28 Nov 18:16:13 18:17:29 11° 90° (E) 18:18:45 437.345
STRAND 1 28 Nov 18:17:48 18:19:27 11° 90° (E) 18:21:06 437.568
BEESAT 2 28 Nov 18:49:30 18:51:25 13° 108° (ESE) 18:53:20 435.950
Cubesat XI-IV 28 Nov 19:10:47 19:15:21 28° 264° (W) 19:19:57 437.490
GONETS M04 28 Nov 19:20:00 19:28:38 55° 78° (ENE) 19:37:09
AIST 1 28 Nov 19:23:00 19:26:58 34° 91° (E) 19:30:58
VERMONT LUNAR 28 Nov 19:30:44 19:33:41 23° 211° (SSW) 19:36:37 437.305
RS-15 28 Nov 19:31:15 19:39:03 21° 336° (NNW) 19:46:59 29.354- 29.394
PHONESAT 2.4 28 Nov 19:31:28 19:34:50 33° 208° (SSW) 19:38:10 2401.200-2431.200
PCSat 28 Nov 19:32:23 19:37:47 81° 116° (ESE) 19:43:13 145.827
CANX-2 28 Nov 19:35:42 19:36:38 11° 64° (ENE) 19:37:33 2200.000
AIST 2 28 Nov 19:35:46 19:38:56 21° 111° (ESE) 19:42:09 435.215
PRISM 28 Nov 19:46:37 19:50:06 25° 291° (WNW) 19:53:33 437.425
GOMX 1 28 Nov 19:49:24 19:50:41 11° 65° (ENE) 19:51:57 467.674
CUBESAT XI-V 28 Nov 19:50:44 19:55:21 65° 285° (WNW) 19:59:55 437.345
STRAND 1 28 Nov 19:54:03 19:59:09 74° 286° (WNW) 20:04:12 437.568
CUTE-I 28 Nov 19:54:40 19:56:21 11° 270° (W) 19:58:03 437.470
BEESAT 3 28 Nov 20:07:08 20:11:13 73° 302° (WNW) 20:15:23 437.485
CUTE 1.7 + AOD 2 28 Nov 20:07:18 20:10:35 23° 69° (ENE) 20:13:54 437.475
HO-68 28 Nov 20:08:53 20:15:39 47° 67° (ENE) 20:22:27 435.675
BEESAT 2 28 Nov 20:25:12 20:29:13 51° 304° (NW) 20:33:18 435.950
DOVE 4 28 Nov 20:29:01 20:32:27 22° 69° (ENE) 20:35:45 437.250
BRITE-PL 28 Nov 20:29:34 20:34:14 43° 73° (ENE) 20:38:34 437.365/2234.400
SEEDS 28 Nov 20:35:43 20:39:38 40° 73° (ENE) 20:43:35 437.485
DELFI C3 28 Nov 20:38:30 20:40:27 13° 65° (ENE) 20:42:26 145.870
CINEMA 3 28 Nov 20:43:09 20:46:03 18° 68° (ENE) 20:48:55 145.822/145.860
UKube-1 28 Nov 20:45:47 20:48:51 19° 66° (ENE) 20:51:55 .
AAUSAT CUBESAT 2 28 Nov 20:46:25 20:50:18 39° 73° (ENE) 20:54:12 437.432
Oscar 11 28 Nov 20:54:13 20:57:44 25° 69° (ENE) 21:01:17 145.826/435.025
FUNcube-1 28 Nov 20:56:12 20:56:58 10° 64° (ENE) 20:57:45 145.935
AIST 1 28 Nov 21:01:39 21:04:44 18° 287° (WNW) 21:07:49
COMPASS 1 28 Nov 21:03:34 21:07:43 74° 76° (ENE) 21:11:54 437.405
CANX-2 28 Nov 21:07:50 21:12:00 64° 259° (W) 21:16:13 2200.000
AIST 2 28 Nov 21:13:27 21:17:20 35° 307° (NW) 21:21:17 435.215
GONETS M04 28 Nov 21:17:37 21:24:55 31° 276° (W) 21:32:11
HUMSAT D 28 Nov 21:17:56 21:19:08 11° 64° (ENE) 21:20:20 437.325/437.525
PCSat 28 Nov 21:18:33 21:21:51 16° 315° (NW) 21:25:10 145.827
DX 1 28 Nov 21:23:05 21:27:18 50° 73° (ENE) 21:31:33 434.975-435.025
GOMX 1 28 Nov 21:23:37 21:28:21 69° 259° (WSW) 21:32:46 467.674
UWE-3 28 Nov 21:26:55 21:30:32 28° 71° (ENE) 21:34:07 435.000/436.395/437.385
CUBEBUG 2 28 Nov 21:32:47 21:36:43 39° 73° (ENE) 21:40:36 437.445
CUTE 1.7 + AOD 2 28 Nov 21:42:47 21:46:23 27° 264° (W) 21:50:01 437.475
RS-15 28 Nov 21:50:43 21:57:30 17° 13° (NNE) 22:04:24 29.354- 29.394
ZACube-1 28 Nov 21:54:34 21:58:38 51° 74° (ENE) 22:02:40 437.345
HO-68 28 Nov 21:57:14 22:03:28 32° 263° (W) 22:09:45 435.675
DOVE 4 28 Nov 22:06:01 22:10:04 31° 263° (W) 22:13:57 437.250
VELOX 1 28 Nov 22:06:26 22:10:41 45° 72° (ENE) 22:14:57 145.980
BRITE-PL 28 Nov 22:09:35 22:12:51 18° 266° (W) 22:15:59 437.365/2234.400
DELFI C3 28 Nov 22:11:26 22:15:20 46° 261° (W) 22:19:17 145.870
SEEDS 28 Nov 22:13:16 22:15:39 15° 268° (W) 22:18:02 437.485
ESTCUBE 1 28 Nov 22:16:58 22:20:29 23° 68° (ENE) 22:24:01 437.505/2401.250
50 SAT 28 Nov 22:18:14 22:22:05 45° 74° (ENE) 22:25:56 437.505
CINEMA 3 28 Nov 22:19:01 22:23:02 35° 262° (W) 22:26:56 145.822/145.860
UKube-1 28 Nov 22:20:44 22:24:44 36° 262° (W) 22:28:46 .
AAUSAT CUBESAT 2 28 Nov 22:23:46 22:26:09 15° 268° (W) 22:28:33 437.432
FUNcube-1 28 Nov 22:28:39 22:32:48 62° 259° (W) 22:36:56 145.935
Oscar 11 28 Nov 22:30:15 22:33:49 25° 264° (W) 22:37:25 145.826/435.025
AISAT 28 Nov 22:34:24 22:38:53 85° 257° (WSW) 22:43:22 437.250
CUBEBUG 1 28 Nov 22:36:09 22:40:09 33° 71° (ENE) 22:44:08 437.445
ISS 28 Nov 22:37:36 22:40:51 67° 138° (SE) 22:44:07 145.825
POPSAT HIP 1 28 Nov 22:45:09 22:47:58 17° 94° (E) 22:50:47 437.405
HUMSAT D 28 Nov 22:50:23 22:54:27 57° 260° (W) 22:58:31 437.325/437.525
TIGRISAT 28 Nov 22:53:06 22:57:10 33° 98° (E) 23:01:17 435.000
DANDE 28 Nov 22:56:54 23:00:05 16° 75° (ENE) 23:03:45 436.750
DX 1 28 Nov 23:01:42 23:03:49 13° 268° (W) 23:05:55 434.975-435.025
UWE-3 28 Nov 23:03:54 23:07:05 21° 265° (W) 23:10:15 435.000/436.395/437.385
UNISAT 6 28 Nov 23:08:18 23:12:41 51° 100° (E) 23:17:09 437.425
CUBEBUG 2 28 Nov 23:11:05 23:13:35 15° 267° (W) 23:16:03 437.445
POLYITAN 1 28 Nov 23:19:40 23:23:44 44° 99° (E) 23:27:47 437.675
QB50P2 28 Nov 23:20:24 23:24:28 45° 99° (E) 23:28:32 145.880/145.840
DUCHIFAT 1 28 Nov 23:24:18 23:28:24 49° 100° (E) 23:32:29 145.980
TISAT 1 28 Nov 23:27:55 23:31:39 30° 70° (ENE) 23:35:23 437.305
ZACube-1 28 Nov 23:33:52 23:35:17 12° 269° (W) 23:36:43 437.345
ANTELSAT 28 Nov 23:37:23 23:41:53 76° 284° (WNW) 23:46:28 437.575/2403.000
NANOSAT C BR1 28 Nov 23:44:11 23:48:25 88° 103° (ESE) 23:52:38 145.865
VELOX 1 28 Nov 23:44:52 23:47:29 15° 267° (W) 23:50:06 145.980
SPROUT 28 Nov 23:47:16 23:51:22 44° 73° (ENE) 23:55:28 437.525
BUGSAT 1 28 Nov 23:48:38 23:52:43 81° 103° (ESE) 23:56:44 437.445
ESTCUBE 1 28 Nov 23:53:05 23:57:10 32° 263° (W) 00:01:16 437.505/2401.250
MaSat-1 28 Nov 23:53:42 23:55:07 14° 60° (ENE) 23:56:34 437.345
QB50P1 28 Nov 23:54:34 23:58:47 70° 285° (WNW) 00:02:58 145.935-145.965
50 SAT 28 Nov 23:56:03 23:57:37 12° 268° (W) 23:59:12 437.505
